Location: Arborea
(39.7744°N, 8.5819°E)
Time: 06:37:32
(UTC+00:00)

Cosmos 2322 - Pass Details

Date: 29 May 2022
Orbit: 840 x 855 km, 71.0° (Epoch: 03 July)

Event Time Altitude Azimuth Distance (km) Brightness Sun altitude
Exits shadow 23:26:36 21° 270° (W) 1,827 5.4 -28.5°
Maximum altitude 23:28:50 27° 304° (NW) 1,597 5.4 -28.5°
Drops below altitude 10° 23:33:37 10° 1° (N) 2,494 7.1 -28.4°
Sets 23:36:29 0° 14° (NNE) 3,433 8.1 -28.4°
